EW1158 Weather Reports


Display with metric or nautical units.
time (UTC)temp
F
wind
direction
speed
MPH
gust
MPH
rain 1hr
in
rain 24hr
in
rain mn
in
humidity
%
barometer
mb
20260504110518 0 0.0 0.0 0.00 0.00 0.00 1012.4
20260504100519 0 0.0 0.0 0.00 0.00 0.00 1013.0
20260504081538 71 201 1.0 6.0 0.00 0.00 0.00 42 1013.4
20260504081041 71 203 2.0 4.0 0.00 0.00 0.00 43 1013.3
20260504080519 70 290 2.0 6.0 0.00 0.00 0.00 44 1013.4
20260504050522 56 0.0 0.0 0.00 0.00 0.00 62 1013.4
20260504050019 56 220 0.0 1.0 0.00 0.00 0.00 61 1013.3
20260504045519 56 169 1.0 2.0 0.00 0.00 0.00 61 1013.2
20260504045019 56 0.0 0.0 0.00 0.00 0.00 60 1013.1
20260504044520 56 166 1.0 2.0 0.00 0.00 0.00 60 1013.1
20260504044020 55 0.0 0.0 0.00 0.00 0.00 60 1013.2
20260504043519 55 0.0 0.0 0.00 0.00 0.00 59 1013.2
20260504043019 54 163 2.0 4.0 0.00 0.00 0.00 60 1013.1
20260504042519 54 160 1.0 3.0 0.00 0.00 0.00 62 1013.2
20260504042019 53 160 0.0 2.0 0.00 0.00 0.00 64 1013.2
20260504041520 53 144 0.0 2.0 0.00 0.00 0.00 63 1013.1
20260504041017 52 161 1.0 3.0 0.00 0.00 0.00 65 1013.1
20260504040540 52 179 1.0 3.0 0.00 0.00 0.00 67 1013.2
20260504040019 52 0.0 0.0 0.00 0.00 0.00 66 1013.3
20260504035520 52 0.0 0.0 0.00 0.00 0.00 65 1013.2
20260504035040 52 200 1.0 2.0 0.00 0.00 0.00 66 1013.2
20260504034520 52 205 0.0 1.0 0.00 0.00 0.00 66 1013.2
20260504034020 52 175 1.0 2.0 0.00 0.00 0.00 66 1013.1
20260504033618 52 0.0 0.0 0.00 0.00 0.00 65 1013.1
20260504033020 52 0.0 0.0 0.00 0.00 0.00 65 1013.1
20260504032517 52 0.0 0.0 0.00 0.00 0.00 64 1013.0
20260504032017 53 0.0 0.0 0.00 0.00 0.00 63 1013.0
20260504031518 53 0.0 0.0 0.00 0.00 0.00 62 1012.8
20260504031019 53 166 0.0 2.0 0.00 0.00 0.00 62 1012.8
20260504030521 53 219 0.0 1.0 0.00 0.00 0.00 61 1012.7
20260504030020 54 0.0 0.0 0.00 0.00 0.00 61 1012.4
20260504025541 54 0.0 0.0 0.00 0.00 0.00 59 1012.2
20260504025018 55 0.0 0.0 0.00 0.00 0.00 58 1012.2
20260504024518 55 0.0 0.0 0.00 0.00 0.00 57 1012.2
20260504024018 56 0.0 0.0 0.00 0.00 0.00 57 1012.1
20260504023519 56 0.0 0.0 0.00 0.00 0.00 56 1012.1
20260504023018 57 0.0 0.0 0.00 0.00 0.00 54 1012.1
20260504022518 58 0.0 0.0 0.00 0.00 0.00 52 1012.1
20260504022019 58 173 0.0 2.0 0.00 0.00 0.00 51 1012.1
20260504021518 58 172 1.0 3.0 0.00 0.00 0.00 50 1012.1
20260504021018 59 170 0.0 3.0 0.00 0.00 0.00 49 1012.1
20260504020519 59 172 1.0 2.0 0.00 0.00 0.00 48 1012.1
20260504020019 60 173 1.0 3.0 0.00 0.00 0.00 48 1012.2
20260504015519 60 171 1.0 2.0 0.00 0.00 0.00 47 1012.1
20260504015019 60 169 1.0 2.0 0.00 0.00 0.00 46 1012.1
20260504014519 61 177 1.0 3.0 0.00 0.00 0.00 46 1012.1
20260504014039 61 170 1.0 4.0 0.00 0.00 0.00 45 1012.1
20260504013519 61 169 2.0 4.0 0.00 0.00 0.00 45 1012.0
20260504013040 61 173 2.0 4.0 0.00 0.00 0.00 45 1012.0
20260504012519 61 172 2.0 4.0 0.00 0.00 0.00 45 1012.0
20260504012020 61 172 1.0 4.0 0.00 0.00 0.00 45 1012.0
20260504011520 62 153 2.0 5.0 0.00 0.00 0.00 44 1012.0
20260504011040 62 145 1.0 4.0 0.00 0.00 0.00 44 1012.0
20260504010540 62 142 2.0 4.0 0.00 0.00 0.00 44 1012.0
20260504010020 62 149 2.0 4.0 0.00 0.00 0.00 43 1012.0
20260504005540 62 144 2.0 5.0 0.00 0.00 0.00 43 1012.0
20260504005020 63 149 3.0 5.0 0.00 0.00 0.00 43 1012.0
20260504004517 63 153 2.0 5.0 0.00 0.00 0.00 43 1012.0
20260504004017 63 156 2.0 5.0 0.00 0.00 0.00 42 1012.0
20260504003518 63 158 3.0 7.0 0.00 0.00 0.00 42 1012.0
20260504003038 63 155 2.0 6.0 0.00 0.00 0.00 42 1012.0
20260504002541 63 159 3.0 7.0 0.00 0.00 0.00 42 1012.1
20260504002021 63 153 2.0 5.0 0.00 0.00 0.00 42 1012.1
20260504001521 63 157 3.0 7.0 0.00 0.00 0.00 42 1012.1
20260504001041 63 153 3.0 6.0 0.00 0.00 0.00 42 1012.2
20260504000518 63 151 2.0 9.0 0.00 0.00 0.00 42 1012.3
20260504000038 64 158 3.0 6.0 0.00 0.00 0.00 42 1012.3
20260503235518 64 161 3.0 6.0 0.00 0.00 0.00 42 1012.3
20260503235018 64 160 3.0 7.0 0.00 0.00 0.00 42 1012.3
20260503234518 64 162 3.0 6.0 0.00 0.00 0.00 42 1012.3
20260503234018 64 158 2.0 7.0 0.00 0.00 0.00 43 1012.4
20260503233519 64 153 3.0 6.0 0.00 0.00 0.00 43 1012.4
20260503233019 64 159 3.0 9.0 0.00 0.00 0.00 43 1012.4
20260503232522 64 164 3.0 6.0 0.00 0.00 0.00 43 1012.5
20260503232019 64 163 2.0 7.0 0.00 0.00 0.00 43 1012.5
20260503231518 64 157 3.0 8.0 0.00 0.00 0.00 43 1012.5
20260503231019 64 162 3.0 8.0 0.00 0.00 0.00 43 1012.6
20260503230539 64 161 4.0 9.0 0.00 0.00 0.00 43 1012.6
20260503230019 64 153 1.0 6.0 0.00 0.00 0.00 44 1012.6
20260503225518 0 0.0 0.0 0.00 0.00 0.00 1012.6
20260503225039 0 0.0 0.0 0.00 0.00 0.00 1012.7
20260503224539 0 0.0 0.0 0.00 0.00 0.00 1012.7
20260503224019 0 0.0 0.0 0.00 0.00 0.00 1012.7
20260503223519 0 0.0 0.0 0.00 0.00 0.00 1012.7
20260503223019 0 0.0 0.0 0.00 0.00 0.00 1012.7
20260503222539 0 0.0 0.0 0.00 0.00 0.00 1012.7
20260503222019 0 0.0 0.0 0.00 0.00 0.00 1012.8
20260503221519 0 0.0 0.0 0.00 0.00 0.00 1012.8
20260503221019 0 0.0 0.0 0.00 0.00 0.00 1012.9
20260503220521 0 0.0 0.0 0.00 0.00 0.00 1012.9
20260503220019 0 0.0 0.0 0.00 0.00 0.00 1012.9
20260503215539 0 0.0 0.0 0.00 0.00 0.00 1013.0
20260503215020 0 0.0 0.0 0.00 0.00 0.00 1013.0
20260503214520 0 0.0 0.0 0.00 0.00 0.00 1013.0
20260503214020 0 0.0 0.0 0.00 0.00 0.00 1013.0
20260503213537 0 0.0 0.0 0.00 0.00 0.00 1013.0
20260503213017 0 0.0 0.0 0.00 0.00 0.00 1013.0
20260503212520 0 0.0 0.0 0.00 0.00 0.00 1013.0
20260503212020 0 0.0 0.0 0.00 0.00 0.00 1013.0
20260503211540 0 0.0 0.0 0.00 0.00 0.00 1013.0
20260503211021 0 0.0 0.0 0.00 0.00 0.00 1013.1
20260503210520 0 0.0 0.0 0.00 0.00 0.00 1013.1
20260503210021 0 0.0 0.0 0.00 0.00 0.00 1013.2
20260503205518 0 0.0 0.0 0.00 0.00 0.00 1013.2
20260503205018 0 0.0 0.0 0.00 0.00 0.00 1013.2
20260503204518 0 0.0 0.0 0.00 0.00 0.00 1013.2
20260503204018 0 0.0 0.0 0.00 0.00 0.00 1013.2
20260503203518 0 0.0 0.0 0.00 0.00 0.00 1013.2
20260503203018 0 0.0 0.0 0.00 0.00 0.00 1013.2
20260503202521 0 0.0 0.0 0.00 0.00 0.00 1013.2
20260503202021 0 0.0 0.0 0.00 0.00 0.00 1013.2
20260503201521 0 0.0 0.0 0.00 0.00 0.00 1013.2
20260503201039 0 0.0 0.0 0.00 0.00 0.00 1013.2
20260503200521 0 0.0 0.0 0.00 0.00 0.00 1013.2
20260503200022 0 0.0 0.0 0.00 0.00 0.00 1013.2
20260503195519 0 0.0 0.0 0.00 0.00 0.00 1013.2
20260503195019 0 0.0 0.0 0.00 0.00 0.00 1013.1
20260503194519 0 0.0 0.0 0.00 0.00 0.00 1013.1
20260503194019 0 0.0 0.0 0.00 0.00 0.00 1013.1
20260503193539 0 0.0 0.0 0.00 0.00 0.00 1013.0
20260503193059 0 0.0 0.0 0.00 0.00 0.00 1013.0
20260503192519 0 0.0 0.0 0.00 0.00 0.00 1013.0
20260503192019 0 0.0 0.0 0.00 0.00 0.00 1013.0
20260503191519 0 0.0 0.0 0.00 0.00 0.00 1012.9
20260503191020 0 0.0 0.0 0.00 0.00 0.00 1012.9
20260503190519 0 0.0 0.0 0.00 0.00 0.00 1012.8
20260503190019 0 0.0 0.0 0.00 0.00 0.00 1012.8
20260503185519 0 0.0 0.0 0.00 0.00 0.00 1012.8
20260503185020 0 0.0 0.0 0.00 0.00 0.00 1012.7
20260503184520 0 0.0 0.0 0.00 0.00 0.00 1012.7
20260503184020 0 0.0 0.0 0.00 0.00 0.00 1012.6
20260503183517 0 0.0 0.0 0.00 0.00 0.00 1012.6
20260503183037 0 0.0 0.0 0.00 0.00 0.00 1012.5
20260503182520 0 0.0 0.0 0.00 0.00 0.00 1012.4
20260503182041 0 0.0 0.0 0.00 0.00 0.00 1012.4
20260503181520 0 0.0 0.0 0.00 0.00 0.00 1012.4
20260503181021 0 0.0 0.0 0.00 0.00 0.00 1012.4
20260503180541 0 0.0 0.0 0.00 0.00 0.00 1012.3
20260503180021 0 0.0 0.0 0.00 0.00 0.00 1012.3
20260503175518 0 0.0 0.0 0.00 0.00 0.00 1012.3
20260503175018 0 0.0 0.0 0.00 0.00 0.00 1012.3
20260503174518 0 0.0 0.0 0.00 0.00 0.00 1012.3
20260503174038 0 0.0 0.0 0.00 0.00 0.00 1012.2
20260503173518 0 0.0 0.0 0.00 0.00 0.00 1012.2
20260503173018 0 0.0 0.0 0.00 0.00 0.00 1012.2
20260503172521 0 0.0 0.0 0.00 0.00 0.00 1012.2
20260503172022 0 0.0 0.0 0.00 0.00 0.00 1012.2
20260503171519 0 0.0 0.0 0.00 0.00 0.00 1012.2
20260503171019 0 0.0 0.0 0.00 0.00 0.00 1012.1
20260503170539 0 0.0 0.0 0.00 0.00 0.00 1012.1
20260503150521 0 0.0 0.0 0.00 0.00 0.00 1012.6
20260503131017 0 0.0 0.0 0.00 0.00 0.00 1013.9
20260503130520 0 0.0 0.0 0.00 0.00 0.00 1013.9